Location: ?????????
(38.4921°N, 22.9787°E)
Time: 02:36:37
(UTC+00:00)

CBERS-1 - Pass Details

Date: 08 December 2025
Orbit: 764 x 773 km, 98.8° (Epoch: 15 January)

Event Time Altitude Azimuth Distance (km) Brightness Sun altitude
Rises 04:48:48 0° 8° (N) 3,247 7.1 -8.6°
Reaches altitude 10° 04:51:09 10° 4° (N) 2,315 6.3 -8.2°
Maximum altitude 04:56:06 54° 288° (WNW) 929 4.1 -7.3°
Drops below altitude 10° 05:01:01 10° 212° (SSW) 2,295 6.4 -6.4°
Sets 05:03:21 0° 208° (SSW) 3,217 7.2 -6.0°
